General Mariano Escobedo International Airport
MMMY : rendu visible

Aérodrome :











RETROUVEZ-NOUS SUR...

 
LOGIN :

S'inscrire | Disclaimer

   EN    FR    IT 

 









Légende :    VFR   VFR Marginal   IFR   IFR Intensif   IFR Très Intensif
Visi : 
Plafond : 
>= 8 km
>= 3000ft
5 à 8 km
1000 à 3000 ft
1500m à 5 km
500 à 1000 ft
800 à 1500m
200 à 500 ft
< 800m
< 200 ft
Symboles :   Orages  Brouillard  Fortes neiges  Fortes précipitations  Vent > 20 kt






- Altitude de l'aérodrome : 1278 ft
- Code IATA : MTY


MMMY - General Mariano Escobedo International

DERNIER METAR :
  • 040842Z 10006KT 10SM BKN020 OVC040 24/22 A2988 RMK SLP/// 5//// 9// 8/5//

METARs EXPIRÉS :
  • 040743Z 06004KT 12SM SCT050 BKN070 24/22 A2989 RMK 8/570
  • 040640Z 10005KT 12SM SCT050 25/22 A2991 RMK 8/500

TAF TAF MMMY
Valide du 04 à 06h jusqu'au 05 à 12h UTC


040459Z 0406/0512 12005KT P6SM SCT030 TX32/0421Z TN22/0412Z
TEMPO 0410/0414 BKN015
FM041600 12010KT P6SM SCT030
FM050200 13005KT P6SM SCT015
FIR MMFR / Amérique du Nord



MET'MAP, la Météo Aéronautique d'un coup d'oeil ! - Copyright ORBIFLY Décembre 2007 - Disclaimer

ORBIFLY MET'MAP TEAM :

Programmation & Développement : Alexandra Zaïnal
Sur une idée originale de : Baudouin d'Aumeries
Assistance à la programmation : Marc-Olivier Méhu
Soutien technique & logistique : Manuel Goepfert

Contact : metmap@orbifly.com




SOURCES & CREDITS :

   NOAA       Earth
Advisory